OK1VCF-8 Weather Reports


time (UTC)temp
F
wind
direction
speed
knots
gust
knots
rain 1hr
in
rain 24hr
in
rain mn
in
humidity
%
barometer
mb
20260505214156 56 0 0.0 0.0 0.00 0.00 0.00 92 1007.4
20260505213438 57 0 0.0 0.0 0.00 0.00 0.00 92 1007.6
20260505212720 58 0 0.0 0.0 0.00 0.00 0.00 92 1007.6
20260505212002 58 0 0.0 0.0 0.00 0.00 0.00 92 1007.5
20260505211245 58 0 0.0 0.0 0.00 0.00 0.00 92 1007.4
20260505210243 57 0 0.0 0.0 0.00 0.00 0.00 90 1007.2
20260505204106 58 0 0.0 0.0 0.00 0.00 0.00 86 1006.4
20260505203348 59 0 0.0 0.0 0.00 0.00 0.00 78 1006.3
20260505202630 59 0 0.0 0.0 0.00 0.00 0.00 77 1005.8
20260505200447 63 0 0.0 0.0 0.00 0.00 0.00 66 1005.6
20260505195727 63 0 0.0 0.0 0.00 0.00 0.00 67 1005.4
20260505195009 64 0 0.0 0.0 0.00 0.00 0.00 66 1005.0
20260505194251 64 0 0.0 0.0 0.00 0.00 0.00 66 1004.8
20260505193534 64 0 0.0 0.0 0.00 0.00 0.00 66 1004.7
20260505192815 64 0 0.0 0.0 0.00 0.00 0.00 66 1004.6
20260505192057 64 0 0.0 0.0 0.00 0.00 0.00 65 1004.6
20260505191054 64 0 0.0 0.0 0.00 0.00 0.00 64 1004.6
20260505190333 64 0 0.0 0.0 0.00 0.00 0.00 64 1004.8
20260505184148 64 0 0.0 0.0 0.00 0.00 0.00 62 1004.8
20260505183430 64 0 0.0 0.0 0.00 0.00 0.00 62 1004.8
20260505182712 64 0 0.0 0.0 0.00 0.00 0.00 62 1004.7
20260505181953 65 0 0.0 0.0 0.00 0.00 0.00 62 1004.8
20260505181234 66 0 0.0 0.0 0.00 0.00 0.00 60 1004.6
20260505180516 66 0 0.0 0.0 0.00 0.00 0.00 57 1004.7
20260505175753 66 0 0.0 0.0 0.00 0.00 0.00 56 1004.8
20260505173613 68 0 0.0 0.0 0.00 0.00 0.00 54 1005.0
20260505172854 68 0 0.0 0.0 0.00 0.00 0.00 55 1005.2
20260505171851 68 0 0.0 0.0 0.00 0.00 0.00 56 1005.4
20260505171131 69 0 0.0 0.0 0.00 0.00 0.00 56 1005.4
20260505170411 69 0 0.0 0.0 0.00 0.00 0.00 54 1005.6
20260505165650 70 0 0.0 0.0 0.00 0.00 0.00 52 1005.6
20260505164932 70 0 0.0 0.0 0.00 0.00 0.00 52 1005.6
20260505164212 70 0 0.0 0.0 0.00 0.00 0.00 51 1005.8
20260505163453 72 0 0.0 0.0 0.00 0.00 0.00 49 1005.6
20260505162734 73 0 0.0 0.0 0.00 0.00 0.00 47 1005.6
20260505162015 76 0 0.0 0.0 0.00 0.00 0.00 42 1005.4
20260505161256 82 0 0.0 0.0 0.00 0.00 0.00 36 1005.2
20260505160537 86 0 0.0 0.0 0.00 0.00 0.00 33 1005.1
20260505152616 86 0 0.0 0.0 0.00 0.00 0.00 30 1005.5
20260505151857 92 0 0.0 0.0 0.00 0.00 0.00 26 1005.6
20260505151139 82 0 0.0 0.0 0.00 0.00 0.00 34 1005.7
20260505150420 78 0 0.0 0.0 0.00 0.00 0.00 38 1005.8
20260505140547 78 0 0.0 0.0 0.00 0.00 0.00 38 1006.2
20260505124804 77 0 0.0 0.0 0.00 0.00 0.00 40 1007.0
20260505123940 77 0 0.0 0.0 0.00 0.00 0.00 40 1006.9
20260505123115 77 0 0.0 0.0 0.00 0.00 0.00 41 1007.0
20260505122255 76 0 0.0 0.0 0.00 0.00 0.00 43 1007.1
20260505121430 76 0 0.0 0.0 0.00 0.00 0.00 43 1007.2
20260505120616 76 0 0.0 0.0 0.00 0.00 0.00 42 1007.4
20260505115755 76 0 0.0 0.0 0.00 0.00 0.00 42 1007.6
20260505114939 75 0 0.0 0.0 0.00 0.00 0.00 42 1007.6
20260505114129 76 0 0.0 0.0 0.00 0.00 0.00 42 1007.6
20260505113056 74 0 0.0 0.0 0.00 0.00 0.00 42 1007.7
20260505112322 75 0 0.0 0.0 0.00 0.00 0.00 41 1007.8
20260505111558 74 0 0.0 0.0 0.00 0.00 0.00 42 1007.8
20260505110839 74 0 0.0 0.0 0.00 0.00 0.00 43 1008.0
20260505110119 74 0 0.0 0.0 0.00 0.00 0.00 42 1008.0
20260505101718 74 0 0.0 0.0 0.00 0.00 0.00 44 1008.4
20260505100958 74 0 0.0 0.0 0.00 0.00 0.00 44 1008.4
20260505100233 75 0 0.0 0.0 0.00 0.00 0.00 44 1008.4
20260505095512 74 0 0.0 0.0 0.00 0.00 0.00 44 1008.4
20260505094753 74 0 0.0 0.0 0.00 0.00 0.00 47 1008.4
20260505093749 73 0 0.0 0.0 0.00 0.00 0.00 48 1008.6
20260505093030 73 0 0.0 0.0 0.00 0.00 0.00 50 1008.6
20260505092310 72 0 0.0 0.0 0.00 0.00 0.00 52 1008.8
20260505091552 72 0 0.0 0.0 0.00 0.00 0.00 54 1008.8
20260505090831 71 0 0.0 0.0 0.00 0.00 0.00 54 1008.8
20260505090113 70 0 0.0 0.0 0.00 0.00 0.00 54 1008.8
20260505085352 70 0 0.0 0.0 0.00 0.00 0.00 56 1009.0
20260505084632 69 0 0.0 0.0 0.00 0.00 0.00 58 1009.0
20260505083912 69 0 0.0 0.0 0.00 0.00 0.00 56 1009.2
20260505083153 68 0 0.0 0.0 0.00 0.00 0.00 56 1009.2
20260505082431 68 0 0.0 0.0 0.00 0.00 0.00 59 1009.1
20260505081713 68 0 0.0 0.0 0.00 0.00 0.00 60 1009.1
20260505080955 67 0 0.0 0.0 0.00 0.00 0.00 60 1009.2
20260505080234 67 0 0.0 0.0 0.00 0.00 0.00 62 1009.1
20260505075514 67 0 0.0 0.0 0.00 0.00 0.00 60 1009.2
20260505074509 68 0 0.0 0.0 0.00 0.00 0.00 60 1009.2
20260505073749 68 0 0.0 0.0 0.00 0.00 0.00 60 1009.4
20260505073029 68 0 0.0 0.0 0.00 0.00 0.00 59 1009.4
20260505070825 68 0 0.0 0.0 0.00 0.00 0.00 60 1009.4
20260505070047 68 0 0.0 0.0 0.00 0.00 0.00 64 1009.5
20260505065307 68 0 0.0 0.0 0.00 0.00 0.00 64 1009.5
20260505064528 66 0 0.0 0.0 0.00 0.00 0.00 66 1009.6
20260505063751 66 0 0.0 0.0 0.00 0.00 0.00 68 1009.8
20260505063012 66 0 0.0 0.0 0.00 0.00 0.00 66 1009.6
20260505062232 66 0 0.0 0.0 0.00 0.00 0.00 67 1009.8
20260505061451 67 0 0.0 0.0 0.00 0.00 0.00 69 1009.8
20260505060708 66 0 0.0 0.0 0.00 0.00 0.00 70 1009.9
20260505055925 65 0 0.0 0.0 0.00 0.00 0.00 72 1010.0
20260505054909 64 0 0.0 0.0 0.00 0.00 0.00 76 1009.9
20260505054149 62 0 0.0 0.0 0.00 0.00 0.00 76 1009.9
20260505053429 62 0 0.0 0.0 0.00 0.00 0.00 77 1009.8
20260505052709 62 0 0.0 0.0 0.00 0.00 0.00 78 1009.8
20260505051950 63 0 0.0 0.0 0.00 0.00 0.00 78 1009.8
20260505051232 62 0 0.0 0.0 0.00 0.00 0.00 78 1009.8
20260505050514 62 0 0.0 0.0 0.00 0.00 0.00 78 1010.0
20260505041400 56 0 0.0 0.0 0.00 0.00 0.00 92 1010.0
20260505040641 55 0 0.0 0.0 0.00 0.00 0.00 92 1010.0
20260505035638 54 0 0.0 0.0 0.00 0.00 0.00 92 1010.0
20260505034920 54 0 0.0 0.0 0.00 0.00 0.00 92 1010.0
20260505034203 54 0 0.0 0.0 0.00 0.00 0.00 91 1010.0
20260505033446 54 0 0.0 0.0 0.00 0.00 0.00 91 1010.0
20260505032727 54 0 0.0 0.0 0.00 0.00 0.00 90 1010.1
20260505032008 55 0 0.0 0.0 0.00 0.00 0.00 90 1010.1
20260505031249 55 0 0.0 0.0 0.00 0.00 0.00 90 1010.2
20260505030531 56 0 0.0 0.0 0.00 0.00 0.00 89 1010.4
20260505025812 56 0 0.0 0.0 0.00 0.00 0.00 89 1010.2
20260505025055 56 0 0.0 0.0 0.00 0.00 0.00 88 1010.4
20260505024336 56 0 0.0 0.0 0.00 0.00 0.00 88 1010.4
20260505023618 56 0 0.0 0.0 0.00 0.00 0.00 88 1010.4
20260505022900 57 0 0.0 0.0 0.00 0.00 0.00 87 1010.2
20260505022144 58 0 0.0 0.0 0.00 0.00 0.00 86 1010.2
20260505021424 58 0 0.0 0.0 0.00 0.00 0.00 86 1010.1
20260505020422 58 0 0.0 0.0 0.00 0.00 0.00 86 1010.3
20260505015704 58 0 0.0 0.0 0.00 0.00 0.00 85 1010.4
20260505014945 58 0 0.0 0.0 0.00 0.00 0.00 84 1010.2
20260505014228 58 0 0.0 0.0 0.00 0.00 0.00 84 1010.4
20260505013510 59 0 0.0 0.0 0.00 0.00 0.00 80 1010.4
20260505012746 59 0 0.0 0.0 0.00 0.00 0.00 78 1010.4
20260505012017 59 0 0.0 0.0 0.00 0.00 0.00 80 1010.5
20260505011235 60 0 0.0 0.0 0.00 0.00 0.00 79 1010.6
20260505010443 60 0 0.0 0.0 0.00 0.00 0.00 75 1010.7
20260505005646 60 0 0.0 0.0 0.00 0.00 0.00 74 1010.6
20260505004844 60 0 0.0 0.0 0.00 0.00 0.00 74 1011.2
20260505004041 60 0 0.0 0.0 0.00 0.00 0.00 75 1010.6
20260505003235 60 0 0.0 0.0 0.00 0.00 0.00 74 1010.8
20260505002420 60 0 0.0 0.0 0.00 0.00 0.00 74 1011.0
20260505001606 60 0 0.0 0.0 0.00 0.00 0.00 74 1010.9
20260505000441 59 0 0.0 0.0 0.00 0.00 0.00 76 1011.2
20260504235630 58 0 0.0 0.0 0.00 0.00 0.00 82 1011.0
20260504234821 57 0 0.0 0.0 0.00 0.00 0.00 86 1011.6
20260504234045 58 0 0.0 0.0 0.00 0.00 0.00 84 1010.8
20260504233311 57 0 0.0 0.0 0.00 0.00 0.00 86 1011.0
20260504232539 56 0 0.0 0.0 0.00 0.00 0.00 88 1011.3
20260504231812 56 0 0.0 0.0 0.00 0.00 0.00 88 1011.8
20260504231055 57 0 0.0 0.0 0.00 0.00 0.00 86 1012.2
20260504230336 58 0 0.0 0.0 0.00 0.00 0.00 83 1012.2
20260504225619 60 0 0.0 0.0 0.00 0.00 0.00 78 1012.8
20260504224900 60 0 0.0 0.0 0.00 0.00 0.00 75 1012.8
20260504224144 58 0 0.0 0.0 0.00 0.00 0.00 74 1013.0
20260504223427 59 0 0.0 0.0 0.00 0.00 0.00 74 1013.2
20260504221003 64 0 0.0 0.0 0.00 0.00 0.00 59 1013.2
20260504220246 64 0 0.0 0.0 0.00 0.00 0.00 57 1012.4
20260504215526 64 0 0.0 0.0 0.00 0.00 0.00 59 1012.2
20260504214808 64 0 0.0 0.0 0.00 0.00 0.00 60 1012.1